Overview Statistics Trail Chart Weather Telemetry Raw packets
 

This is the latest recevied weather packets stored in our database for station/object KF7SOJ. If no packets are shown the sender has not sent any weather packets the latest 10 day(s).

<< 58 59 60 61 62 63 64 >>
Time Temp. Humidity Pressure Rain* Wind** Luminosity Snow
1788215241 27.22° C 20% 931.3 hPa 0 mm - 546 W/m² -
1788214936 27.22° C 19% 931.7 hPa 0 mm - 561 W/m² -
1788214632 27.22° C 19% 931.7 hPa 0 mm - 577 W/m² -
1788214327 26.67° C 20% 931.7 hPa 0 mm - 591 W/m² -
1788214021 27.22° C 20% 931.8 hPa 0 mm - 604 W/m² -
1788213717 27.78° C 19% 931.9 hPa 0 mm - 616 W/m² -
1788213412 27.22° C 19% 931.9 hPa 0 mm - 630 W/m² -
1788213108 27.78° C 20% 931.9 hPa 0 mm - 643 W/m² -
1788212805 27.22° C 19% 932 hPa 0 mm - 658 W/m² -
1788212501 26.67° C 20% 932 hPa 0 mm - 672 W/m² -
1788212198 26.67° C 21% 932.3 hPa 0 mm - 684 W/m² -
1788211898 26.67° C 20% 932.2 hPa 0 mm - 692 W/m² -
1788211594 26.67° C 21% 932.3 hPa 0 mm - 705 W/m² -
1788211297 26.11° C 21% 932.3 hPa 0 mm - 715 W/m² -
1788210990 26.11° C 21% 932.5 hPa 0 mm - 728 W/m² -
1788210690 26.11° C 22% 932.3 hPa 0 mm - 737 W/m² -
1788210387 25.56° C 22% 932.4 hPa 0 mm - 749 W/m² -
1788210081 26.11° C 21% 932.6 hPa 0 mm - 756 W/m² -
1788209780 26.11° C 21% 932.7 hPa 0 mm - 772 W/m² -
1788209476 25.56° C 22% 932.6 hPa 0 mm - 777 W/m² -
1788209170 26.11° C 23% 932.8 hPa 0 mm - 783 W/m² -
1788208869 25.56° C 22% 932.9 hPa 0 mm - 788 W/m² -
1788208569 26.67° C 23% 933 hPa 0 mm - 795 W/m² -
1788208268 25.56° C 22% 932.8 hPa 0 mm - 801 W/m² -
1788207968 25.56° C 25% 932.9 hPa 0 mm - 805 W/m² -

* Rain latest hour (hover to see other rain measurements)
** Current wind speed in m/s (hover to see current wind gust speed)